(65) Cybele
ephemeris date magn radius delta ra dec elong phase
Today21 Jun 202612.83.193 AU3.130 AU11h39m+04°33'84.3°18.5°
Opposition12 Jun 202710.92.972 AU1.959 AU17h25m-18°00'174.7°1.8°
(65) Cybele - 2026-06-21
astro.vanbuitenen.nl


 
-1 year
-1 month
-1 day
Now
+1 day
+1 month
+1 year

The interactive orbit chart above shows the body's path through the solar system and its position at the given date. Green and blue lines are shown perpendicular to the ecliptic plane: Green if the path is above the ecliptic plane, blue if it is below. (Left-click and drag to rotate the view; Right-click and drag to move the view; Use scroll wheel to zoom in our out.)

The orbital elements of Cybele are:

            e (Eccentricity)                : 0.1278729
            a (Semimajor axis)              : 3.4071491
            i (Inclination)                 : 3.56527
            Ω (Longitude of ascending node) : 155.09993
            ω (Argument of perihelion)      : 104.22710
            M (Mean anomaly)                : 303.90322
            Epoch                           : 2026 Jun 09

            L (Longitude of perihelion)     : 79.35350
            B (Latitude of perihelion)      : 3.45579
            P (Orbital period in years)     : 6.29            
        

The light curve chart below shows the estimated development of the minor planet's magnitude.


The all-sky chart below shows the path of the minor planet over the same period as the light curve. The current position is marked yellow.





The following chart shows the path of the minor planet in the next few days. The field of view is optimized for (~10x50) binoculars and finderscopes.




Ephemerides:
Date       Time       RA (2000)    DEC (2000)    delta   radius  elong  phase   PA    magn
2026-06-21 00:00 UT   11 39 55.4   +04 33 18     3.130    3.193   84.3   18.5   113   12.8 
2026-06-21 02:18 UT   11 39 59.5   +04 32 52     3.131    3.193   84.2   18.5   113   12.8 
2026-06-22 00:00 UT   11 40 38.7   +04 28 36     3.143    3.192   83.5   18.4   113   12.8 
2026-06-23 00:00 UT   11 41 22.7   +04 23 50     3.155    3.191   82.8   18.4   113   12.8 
2026-06-24 00:00 UT   11 42 07.4   +04 18 58     3.168    3.190   82.0   18.4   113   12.8 
2026-06-25 00:00 UT   11 42 52.8   +04 14 01     3.180    3.189   81.3   18.4   113   12.8 
2026-06-26 00:00 UT   11 43 39.0   +04 08 60     3.193    3.188   80.5   18.3   113   12.8 
2026-06-27 00:00 UT   11 44 25.9   +04 03 54     3.206    3.187   79.8   18.3   113   12.8 
2026-06-28 00:00 UT   11 45 13.5   +03 58 44     3.218    3.186   79.1   18.3   113   12.8 
2026-06-29 00:00 UT   11 46 01.7   +03 53 29     3.230    3.184   78.3   18.2   113   12.8 
2026-06-30 00:00 UT   11 46 50.7   +03 48 09     3.243    3.183   77.6   18.2   113   12.8 
2026-07-01 00:00 UT   11 47 40.3   +03 42 45     3.255    3.182   76.9   18.1   113   12.8 
2026-07-02 00:00 UT   11 48 30.5   +03 37 17     3.268    3.181   76.1   18.1   113   12.8 
2026-07-03 00:00 UT   11 49 21.4   +03 31 45     3.280    3.180   75.4   18.0   113   12.8 
2026-07-04 00:00 UT   11 50 13.0   +03 26 08     3.292    3.179   74.7   18.0   113   12.9 
2026-07-05 00:00 UT   11 51 05.2   +03 20 27     3.304    3.178   74.0   17.9   113   12.9 
2026-07-06 00:00 UT   11 51 58.0   +03 14 42     3.316    3.177   73.3   17.8   113   12.9 
2026-07-07 00:00 UT   11 52 51.4   +03 08 54     3.329    3.176   72.6   17.8   113   12.9 
2026-07-08 00:00 UT   11 53 45.4   +03 03 01     3.341    3.175   71.9   17.7   113   12.9 
2026-07-09 00:00 UT   11 54 40.1   +02 57 04     3.353    3.174   71.2   17.6   113   12.9 
2026-07-10 00:00 UT   11 55 35.3   +02 51 03     3.365    3.172   70.5   17.6   113   12.9 
2026-07-11 00:00 UT   11 56 31.1   +02 44 59     3.376    3.171   69.8   17.5   113   12.9 
2026-07-12 00:00 UT   11 57 27.5   +02 38 51     3.388    3.170   69.1   17.4   113   12.9 
2026-07-13 00:00 UT   11 58 24.5   +02 32 39     3.400    3.169   68.4   17.3   113   12.9 
2026-07-14 00:00 UT   11 59 22.0   +02 26 23     3.412    3.168   67.7   17.3   113   12.9 
2026-07-15 00:00 UT   12 00 20.1   +02 20 04     3.423    3.167   67.0   17.2   113   12.9 
2026-07-16 00:00 UT   12 01 18.7   +02 13 42     3.435    3.166   66.3   17.1   112   12.9 
2026-07-17 00:00 UT   12 02 17.9   +02 07 16     3.446    3.165   65.6   17.0   112   12.9 
2026-07-18 00:00 UT   12 03 17.6   +02 00 46     3.458    3.164   64.9   16.9   112   12.9 
2026-07-19 00:00 UT   12 04 17.8   +01 54 14     3.469    3.163   64.2   16.8   112   12.9 
2026-07-20 00:00 UT   12 05 18.6   +01 47 38     3.480    3.162   63.6   16.7   112   12.9 
2026-07-21 00:00 UT   12 06 19.8   +01 40 59     3.492    3.161   62.9   16.6   112   12.9 


    Terminology:
            
    delta:  distance between minor planet and earth in AU
    radius: distance between minor planet and sun in AU
    magn:   magnitude (brightness) estimate    
    ra:     right ascension in hours (24h = 360deg)
    dec:    declination in degrees
    elong:  elongation in degrees (angle sun-earth-minor planet)    
    phase:  phase angle in degrees (angle sun-minor planet-earth)        
    AU:     Astronomical Unit (mean distance between earth and sun: 149597870.7 km
    

Orbital elements provided by the MPC (Minor Planet Center).
Calculations by a modified version of AAPlus, a C# implementation of the AA+ project by PJ Naughter from the algorithms presented in the book "Astronomical Algorithms" by Jean Meeus.
NGC2000 dso catalog and star labels from VizieR as provided by the Strasbourg astronomical Data Center.
Tycho2 catalog from the ESO archive.